QPF
0.01 0.00 0.00 0.00 0.00 0.01 0.00 0.00 0.00 0.00 0.00 0.00 0.00 0.00 0.00 0.00 0.00 0.00 0.00 0.01 0.01 0.01 0.00 0.01 0.01 0.01 0.01 0.01 0.01 0.02 0.02 0.01 0.01 0.02 0.02 0.03 0.05 0.05 0.05 0.05 0.05 0.05 0.05
0.00 0.00 0.00 0.00 0.00 0.00 0.01 0.00 0.00 0.00 0.00 0.00 0.00 0.00 0.00 0.00 0.00 0.00 0.00 0.01 0.01 0.01 0.01 0.01 0.01 0.01 0.00 0.00 0.01 0.02 0.02 0.01 0.02 0.03 0.02 0.04 0.04 0.05 0.05 0.05 0.05 0.05 0.05
0.00 0.00 0.00 0.00 0.00 0.00 0.00 0.01 0.00 0.00 0.00 0.00 0.01 0.01 0.01 0.01 0.00 0.00 0.00 0.01 0.01 0.01 0.01 0.01 0.01 0.00 0.01 0.01 0.01 0.01 0.01 0.02 0.03 0.03 0.03 0.04 0.05 0.05 0.06 0.06 0.06 0.05 0.06
0.00 0.00 0.00 0.00 0.00 0.00 0.00 0.00 0.00 0.00 0.00 0.00 0.00 0.01 0.01 0.01 0.01 0.01 0.01 0.01 0.01 0.01 0.01 0.01 0.01 0.01 0.01 0.01 0.02 0.01 0.01 0.02 0.03 0.02 0.03 0.03 0.04 0.05 0.05 0.04 0.04 0.05 0.06
0.00 0.00 0.00 0.00 0.00 0.00 0.00 0.01 0.01 0.01 0.01 0.00 0.00 0.01 0.01 0.02 0.01 0.01 0.01 0.01 0.01 0.01 0.01 0.01 0.01 0.01 0.01 0.01 0.01 0.01 0.02 0.03 0.03 0.02 0.02 0.02 0.03 0.05 0.04 0.04 0.04 0.04 0.05
0.00 0.00 0.00 0.00 0.00 0.00 0.00 0.00 0.00 0.00 0.00 0.01 0.00 0.00 0.01 0.01 0.02 0.02 0.01 0.01 0.01 0.01 0.01 0.01 0.01 0.01 0.01 0.01 0.01 0.01 0.02 0.03 0.03 0.02 0.02 0.01 0.02 0.04 0.05 0.05 0.06 0.04 0.04
0.00 0.00 0.00 0.00 0.00 0.00 0.00 0.00 0.00 0.00 0.00 0.00 0.00 0.00 0.00 0.01 0.01 0.02 0.02 0.01 0.01 0.01 0.01 0.01 0.01 0.01 0.01 0.01 0.01 0.01 0.02 0.02 0.02 0.02 0.02 0.01 0.02 0.03 0.04 0.06 0.06 0.05 0.05
0.00 0.00 0.00 0.00 0.00 0.00 0.00 0.00 0.00 0.00 0.00 0.00 0.00 0.00 0.01 0.01 0.01 0.02 0.02 0.01 0.01 0.01 0.01 0.01 0.01 0.01 0.01 0.01 0.00 0.01 0.01 0.01 0.01 0.02 0.02 0.01 0.01 0.02 0.03 0.04 0.05 0.06 0.07
0.00 0.00 0.00 0.00 0.00 0.00 0.00 0.00 0.00 0.00 0.00 0.00 0.00 0.00 0.00 0.01 0.01 0.01 0.02 0.02 0.01 0.01 0.01 0.01 0.01 0.00 0.01 0.01 0.01 0.01 0.01 0.00 0.00 0.01 0.01 0.01 0.01 0.02 0.04 0.04 0.06 0.07 0.07
0.00 0.00 0.00 0.00 0.00 0.00 0.00 0.00 0.00 0.00 0.00 0.00 0.00 0.00 0.00 0.00 0.01 0.01 0.02 0.02 0.01 0.01 0.01 0.01 0.01 0.00 0.01 0.01 0.01 0.01 0.00 0.01 0.01 0.00 0.01 0.01 0.01 0.03 0.05 0.07 0.09 0.11 0.08
0.00 0.00 0.00 0.00 0.00 0.00 0.00 0.00 0.00 0.00 0.00 0.00 0.00 0.00 0.00 0.00 0.01 0.01 0.02 0.02 0.02 0.02 0.01 0.01 0.00 0.00 0.00 0.01 0.01 0.01 0.00 0.00 0.00 0.00 0.00 0.01 0.01 0.01 0.03 0.05 0.07 0.09 0.08
0.00 0.00 0.00 0.00 0.00 0.00 0.00 0.00 0.00 0.00 0.00 0.00 0.00 0.00 0.00 0.01 0.01 0.01 0.02 0.02 0.02 0.02 0.01 0.01 0.00 0.01 0.01 0.00 0.00 0.00 0.00 0.00 0.00 0.00 0.00 0.00 0.00 0.01 0.02 0.02 0.03 0.03 0.05
0.00 0.00 0.00 0.00 0.00 0.00 0.00 0.00 0.00 0.00 0.00 0.01 0.00 0.00 0.00 0.01 0.01 0.02 0.03 0.03 0.03 0.03 0.02 0.02 0.01 0.01 0.01 0.01 0.01 0.00 0.00 0.00 0.00 0.00 0.00 0.00 0.00 0.00 0.01 0.03 0.02 0.03 0.03
0.00 0.00 0.00 0.00 0.00 0.00 0.00 0.00 0.00 0.00 0.01 0.01 0.00 0.00 0.01 0.01 0.01 0.02 0.03 0.04 0.05 0.04 0.03 0.02 0.02 0.01 0.01 0.01 0.01 0.01 0.01 0.01 0.00 0.00 0.00 0.00 0.00 0.00 0.01 0.02 0.03 0.04 0.04
0.00 0.00 0.00 0.00 0.00 0.00 0.00 0.00 0.00 0.00 0.00 0.01 0.01 0.01 0.01 0.01 0.01 0.02 0.03 0.05 0.06 0.05 0.04 0.03 0.02 0.02 0.01 0.02 0.01 0.01 0.01 0.01 0.01 0.01 0.01 0.01 0.00 0.00 0.01 0.01 0.01 0.02 0.04
0.00 0.00 0.00 0.00 0.00 0.00 0.00 0.00 0.00 0.00 0.00 0.00 0.01 0.01 0.01 0.01 0.01 0.02 0.03 0.04 0.05 0.04 0.04 0.03 0.03 0.02 0.02 0.02 0.02 0.01 0.01 0.01 0.01 0.02 0.02 0.02 0.01 0.01 0.01 0.01 0.02 0.02 0.04
0.00 0.00 0.00 0.00 0.00 0.00 0.00 0.00 0.00 0.00 0.00 0.00 0.01 0.01 0.01 0.02 0.02 0.02 0.03 0.04 0.04 0.03 0.03 0.03 0.03 0.02 0.02 0.02 0.02 0.01 0.01 0.01 0.02 0.02 0.02 0.03 0.03 0.02 0.02 0.01 0.01 0.02 0.03
0.00 0.00 0.00 0.00 0.00 0.00 0.00 0.00 0.00 0.01 0.01 0.01 0.01 0.01 0.01 0.02 0.02 0.02 0.03 0.04 0.03 0.02 0.02 0.02 0.02 0.02 0.02 0.02 0.02 0.02 0.02 0.02 0.02 0.03 0.04 0.04 0.04 0.04 0.03 0.02 0.02 0.02 0.02
0.00 0.00 0.00 0.00 0.00 0.00 0.00 0.00 0.01 0.01 0.01 0.01 0.01 0.01 0.01 0.02 0.03 0.03 0.03 0.04 0.03 0.02 0.01 0.02 0.02 0.02 0.01 0.01 0.01 0.02 0.02 0.03 0.03 0.04 0.05 0.06 0.06 0.06 0.05 0.03 0.02 0.02 0.02
0.00 0.00 0.00 0.00 0.00 0.00 0.00 0.00 0.01 0.01 0.01 0.01 0.01 0.01 0.01 0.01 0.02 0.03 0.04 0.03 0.03 0.02 0.01 0.01 0.02 0.01 0.01 0.01 0.01 0.01 0.02 0.03 0.04 0.04 0.04 0.06 0.07 0.07 0.06 0.05 0.03 0.03 0.03
0.00 0.00 0.00 0.00 0.00 0.00 0.00 0.00 0.01 0.01 0.01 0.01 0.01 0.01 0.01 0.01 0.02 0.02 0.03 0.04 0.03 0.02 0.02 0.02 0.02 0.02 0.01 0.01 0.01 0.01 0.02 0.03 0.04 0.04 0.04 0.05 0.07 0.08 0.07 0.07 0.06 0.04 0.04
0.00 0.00 0.00 0.00 0.00 0.00 0.00 0.00 0.00 0.01 0.01 0.01 0.01 0.01 0.01 0.01 0.02 0.02 0.03 0.04 0.04 0.03 0.02 0.02 0.02 0.02 0.02 0.02 0.01 0.01 0.02 0.03 0.04 0.05 0.05 0.04 0.05 0.07 0.08 0.07 0.07 0.06 0.06
0.00 0.00 0.00 0.00 0.00 0.00 0.00 0.00 0.00 0.00 0.00 0.01 0.01 0.02 0.03 0.03 0.03 0.02 0.03 0.04 0.05 0.04 0.03 0.03 0.03 0.02 0.02 0.02 0.02 0.02 0.02 0.03 0.04 0.05 0.05 0.06 0.06 0.06 0.08 0.09 0.09 0.08 0.08
0.00 0.00 0.00 0.00 0.00 0.00 0.00 0.00 0.00 0.00 0.01 0.01 0.02 0.03 0.03 0.04 0.04 0.04 0.04 0.04 0.04 0.04 0.04 0.03 0.03 0.02 0.02 0.02 0.02 0.02 0.03 0.03 0.04 0.04 0.05 0.06 0.06 0.06 0.06 0.07 0.07 0.07 0.08
0.00 0.00 0.00 0.00 0.00 0.00 0.00 0.00 0.00 0.00 0.01 0.01 0.02 0.03 0.04 0.05 0.05 0.04 0.04 0.04 0.03 0.03 0.03 0.03 0.02 0.02 0.02 0.02 0.02 0.02 0.03 0.03 0.03 0.04 0.05 0.05 0.06 0.06 0.06 0.06 0.06 0.06 0.06
0.00 0.00 0.00 0.00 0.00 0.00 0.00 0.00 0.00 0.00 0.01 0.02 0.03 0.03 0.04 0.05 0.05 0.04 0.04 0.04 0.03 0.03 0.03 0.02 0.02 0.01 0.02 0.02 0.02 0.02 0.02 0.02 0.02 0.03 0.04 0.05 0.05 0.06 0.06 0.06 0.05 0.06 0.06
MSLP
1017.30 1017.28 1017.27 1017.25 1017.19 1017.08 1016.93 1016.73 1016.51 1016.28 1016.07 1015.86 1015.68 1015.51 1015.35 1015.19 1015.03 1014.87 1014.71 1014.57 1014.44 1014.34 1014.26 1014.21 1014.18 1014.16 1014.15 1014.13 1014.09 1014.02 1013.91 1013.76 1013.56 1013.28 1012.94 1012.54 1012.08 1011.61 1011.16 1010.76 1010.47 1010.32 1010.32
1017.91 1017.85 1017.80 1017.72 1017.62 1017.47 1017.29 1017.07 1016.84 1016.59 1016.34 1016.09 1015.85 1015.61 1015.38 1015.15 1014.92 1014.70 1014.49 1014.29 1014.12 1013.97 1013.85 1013.75 1013.67 1013.62 1013.57 1013.54 1013.52 1013.49 1013.45 1013.38 1013.27 1013.10 1012.85 1012.53 1012.15 1011.72 1011.29 1010.89 1010.57 1010.37 1010.32
1018.65 1018.56 1018.45 1018.33 1018.17 1017.98 1017.76 1017.51 1017.24 1016.96 1016.67 1016.38 1016.09 1015.80 1015.50 1015.20 1014.91 1014.62 1014.35 1014.10 1013.87 1013.67 1013.49 1013.34 1013.21 1013.10 1013.02 1012.97 1012.94 1012.93 1012.93 1012.92 1012.88 1012.79 1012.64 1012.41 1012.10 1011.74 1011.34 1010.95 1010.62 1010.38 1010.26
1019.43 1019.31 1019.17 1018.99 1018.78 1018.54 1018.27 1017.98 1017.67 1017.36 1017.04 1016.71 1016.37 1016.03 1015.68 1015.33 1014.98 1014.64 1014.31 1014.00 1013.72 1013.46 1013.22 1013.01 1012.82 1012.66 1012.53 1012.43 1012.38 1012.36 1012.36 1012.38 1012.39 1012.36 1012.28 1012.13 1011.90 1011.61 1011.26 1010.91 1010.58 1010.32 1010.15
1020.16 1020.04 1019.86 1019.64 1019.38 1019.08 1018.76 1018.42 1018.08 1017.73 1017.38 1017.03 1016.66 1016.29 1015.90 1015.51 1015.12 1014.72 1014.35 1013.99 1013.65 1013.33 1013.04 1012.77 1012.52 1012.29 1012.10 1011.95 1011.84 1011.78 1011.76 1011.78 1011.79 1011.80 1011.77 1011.68 1011.53 1011.30 1011.03 1010.73 1010.43 1010.18 1009.99
1020.78 1020.65 1020.46 1020.19 1019.88 1019.54 1019.17 1018.79 1018.42 1018.05 1017.68 1017.31 1016.94 1016.54 1016.13 1015.71 1015.28 1014.86 1014.44 1014.03 1013.65 1013.28 1012.93 1012.60 1012.29 1012.00 1011.74 1011.52 1011.34 1011.22 1011.14 1011.10 1011.10 1011.10 1011.10 1011.05 1010.96 1010.82 1010.62 1010.40 1010.16 1009.94 1009.76
1021.26 1021.13 1020.92 1020.62 1020.28 1019.89 1019.49 1019.08 1018.69 1018.30 1017.92 1017.55 1017.16 1016.76 1016.34 1015.91 1015.46 1015.00 1014.55 1014.11 1013.68 1013.27 1012.87 1012.49 1012.12 1011.77 1011.44 1011.13 1010.87 1010.66 1010.50 1010.39 1010.33 1010.30 1010.28 1010.26 1010.22 1010.15 1010.04 1009.91 1009.76 1009.60 1009.47
1021.60 1021.47 1021.24 1020.93 1020.56 1020.15 1019.72 1019.30 1018.89 1018.50 1018.12 1017.74 1017.36 1016.96 1016.53 1016.08 1015.61 1015.14 1014.65 1014.18 1013.72 1013.27 1012.83 1012.41 1011.99 1011.58 1011.18 1010.80 1010.45 1010.14 1009.88 1009.67 1009.52 1009.43 1009.38 1009.36 1009.35 1009.34 1009.32 1009.28 1009.23 1009.17 1009.11
1021.83 1021.70 1021.47 1021.16 1020.77 1020.35 1019.91 1019.48 1019.06 1018.67 1018.29 1017.92 1017.53 1017.13 1016.69 1016.23 1015.74 1015.24 1014.73 1014.23 1013.74 1013.27 1012.80 1012.35 1011.89 1011.44 1010.98 1010.53 1010.09 1009.67 1009.30 1008.99 1008.74 1008.56 1008.45 1008.40 1008.40 1008.44 1008.50 1008.56 1008.61 1008.66 1008.68
1022.00 1021.88 1021.65 1021.34 1020.95 1020.53 1020.09 1019.66 1019.25 1018.86 1018.47 1018.10 1017.70 1017.29 1016.84 1016.35 1015.84 1015.31 1014.78 1014.26 1013.74 1013.25 1012.77 1012.29 1011.82 1011.33 1010.83 1010.32 1009.80 1009.29 1008.82 1008.38 1008.02 1007.74 1007.55 1007.46 1007.44 1007.50 1007.61 1007.75 1007.91 1008.06 1008.19
1022.14 1022.02 1021.80 1021.50 1021.14 1020.73 1020.30 1019.87 1019.46 1019.07 1018.68 1018.29 1017.87 1017.43 1016.96 1016.45 1015.91 1015.35 1014.79 1014.24 1013.71 1013.20 1012.71 1012.23 1011.75 1011.25 1010.72 1010.17 1009.59 1009.00 1008.42 1007.88 1007.41 1007.01 1006.73 1006.56 1006.51 1006.56 1006.70 1006.90 1007.14 1007.38 1007.61
1022.24 1022.14 1021.94 1021.66 1021.32 1020.93 1020.52 1020.10 1019.69 1019.29 1018.88 1018.46 1018.02 1017.55 1017.04 1016.49 1015.92 1015.33 1014.74 1014.17 1013.63 1013.12 1012.63 1012.15 1011.68 1011.18 1010.64 1010.06 1009.43 1008.78 1008.11 1007.47 1006.88 1006.38 1005.99 1005.73 1005.61 1005.63 1005.77 1006.00 1006.29 1006.61 1006.93
1022.30 1022.21 1022.04 1021.79 1021.47 1021.10 1020.71 1020.30 1019.89 1019.47 1019.04 1018.59 1018.11 1017.60 1017.05 1016.46 1015.85 1015.23 1014.62 1014.04 1013.49 1012.98 1012.49 1012.03 1011.56 1011.07 1010.54 1009.94 1009.29 1008.58 1007.85 1007.11 1006.42 1005.80 1005.30 1004.94 1004.74 1004.69 1004.80 1005.03 1005.35 1005.73 1006.12
1022.27 1022.20 1022.06 1021.83 1021.54 1021.20 1020.82 1020.41 1019.99 1019.55 1019.09 1018.60 1018.09 1017.53 1016.94 1016.32 1015.68 1015.03 1014.41 1013.81 1013.26 1012.75 1012.28 1011.83 1011.38 1010.90 1010.37 1009.77 1009.10 1008.36 1007.57 1006.75 1005.96 1005.24 1004.62 1004.15 1003.84 1003.72 1003.77 1003.97 1004.30 1004.71 1005.16
1022.12 1022.07 1021.95 1021.75 1021.49 1021.16 1020.79 1020.38 1019.94 1019.47 1018.98 1018.46 1017.90 1017.31 1016.69 1016.04 1015.38 1014.73 1014.09 1013.49 1012.94 1012.43 1011.97 1011.53 1011.09 1010.63 1010.11 1009.51 1008.83 1008.06 1007.22 1006.35 1005.47 1004.64 1003.91 1003.32 1002.91 1002.68 1002.65 1002.81 1003.11 1003.54 1004.04
1021.83 1021.80 1021.70 1021.52 1021.27 1020.95 1020.58 1020.16 1019.70 1019.21 1018.69 1018.14 1017.56 1016.94 1016.30 1015.64 1014.97 1014.30 1013.67 1013.07 1012.52 1012.02 1011.57 1011.13 1010.70 1010.24 1009.73 1009.14 1008.45 1007.66 1006.79 1005.86 1004.92 1004.00 1003.16 1002.46 1001.92 1001.59 1001.46 1001.54 1001.81 1002.23 1002.77
1021.43 1021.40 1021.31 1021.14 1020.90 1020.58 1020.21 1019.78 1019.30 1018.79 1018.24 1017.67 1017.07 1016.44 1015.79 1015.13 1014.46 1013.81 1013.18 1012.58 1012.04 1011.54 1011.08 1010.65 1010.22 1009.77 1009.26 1008.67 1007.98 1007.19 1006.30 1005.33 1004.33 1003.33 1002.39 1001.58 1000.92 1000.47 1000.23 1000.23 1000.44 1000.84 1001.40
1020.94 1020.91 1020.82 1020.65 1020.41 1020.09 1019.71 1019.26 1018.78 1018.25 1017.69 1017.10 1016.49 1015.87 1015.22 1014.57 1013.92 1013.27 1012.66 1012.07 1011.52 1011.02 1010.56 1010.12 1009.69 1009.24 1008.73 1008.15 1007.47 1006.68 1005.78 1004.79 1003.75 1002.69 1001.67 1000.74 999.97 999.39 999.04 998.93 999.06 999.43 999.99
1020.40 1020.36 1020.27 1020.10 1019.85 1019.53 1019.14 1018.69 1018.19 1017.65 1017.09 1016.50 1015.90 1015.28 1014.65 1014.01 1013.38 1012.75 1012.14 1011.56 1011.01 1010.50 1010.03 1009.59 1009.15 1008.70 1008.20 1007.63 1006.96 1006.19 1005.30 1004.31 1003.24 1002.14 1001.05 1000.03 999.14 998.44 997.96 997.73 997.78 998.08 998.62
1019.85 1019.80 1019.70 1019.53 1019.28 1018.95 1018.56 1018.10 1017.60 1017.06 1016.50 1015.92 1015.33 1014.72 1014.11 1013.49 1012.87 1012.25 1011.65 1011.07 1010.52 1010.00 1009.52 1009.06 1008.63 1008.18 1007.70 1007.15 1006.52 1005.77 1004.91 1003.93 1002.86 1001.73 1000.58 999.48 998.49 997.66 997.05 996.70 996.63 996.85 997.35
1019.30 1019.24 1019.14 1018.96 1018.71 1018.38 1017.98 1017.53 1017.04 1016.50 1015.95 1015.38 1014.80 1014.21 1013.61 1013.01 1012.40 1011.78 1011.18 1010.60 1010.04 1009.51 1009.02 1008.56 1008.13 1007.70 1007.24 1006.73 1006.14 1005.44 1004.62 1003.67 1002.61 1001.47 1000.28 999.10 998.01 997.06 996.32 995.84 995.65 995.77 996.20
1018.73 1018.67 1018.56 1018.38 1018.13 1017.81 1017.42 1016.97 1016.48 1015.96 1015.42 1014.86 1014.29 1013.71 1013.13 1012.53 1011.92 1011.31 1010.71 1010.11 1009.55 1009.01 1008.52 1008.06 1007.64 1007.23 1006.81 1006.34 1005.81 1005.17 1004.40 1003.49 1002.45 1001.31 1000.09 998.86 997.67 996.61 995.74 995.12 994.80 994.80 995.14
1018.12 1018.05 1017.93 1017.76 1017.51 1017.20 1016.82 1016.38 1015.90 1015.40 1014.86 1014.32 1013.76 1013.19 1012.60 1012.01 1011.40 1010.79 1010.18 1009.57 1009.00 1008.46 1007.97 1007.52 1007.12 1006.74 1006.36 1005.94 1005.46 1004.88 1004.17 1003.31 1002.30 1001.15 999.91 998.63 997.36 996.20 995.20 994.45 994.00 993.87 994.11
1017.42 1017.35 1017.23 1017.05 1016.81 1016.50 1016.14 1015.71 1015.25 1014.75 1014.23 1013.69 1013.14 1012.57 1011.99 1011.39 1010.78 1010.17 1009.55 1008.94 1008.36 1007.83 1007.34 1006.91 1006.53 1006.18 1005.84 1005.48 1005.05 1004.52 1003.85 1003.03 1002.04 1000.90 999.63 998.30 996.97 995.71 994.60 993.73 993.15 992.91 993.05
1016.62 1016.54 1016.42 1016.25 1016.01 1015.71 1015.35 1014.93 1014.48 1013.99 1013.48 1012.95 1012.40 1011.84 1011.26 1010.66 1010.05 1009.43 1008.81 1008.21 1007.64 1007.11 1006.64 1006.23 1005.87 1005.55 1005.24 1004.92 1004.52 1004.03 1003.39 1002.58 1001.60 1000.46 999.17 997.79 996.39 995.05 993.85 992.87 992.18 991.84 991.88
1015.75 1015.66 1015.53 1015.35 1015.11 1014.81 1014.46 1014.05 1013.61 1013.13 1012.62 1012.10 1011.56 1011.00 1010.42 1009.82 1009.22 1008.61 1008.00 1007.41 1006.85 1006.34 1005.88 1005.49 1005.16 1004.86 1004.57 1004.26 1003.89 1003.40 1002.77 1001.96 1000.97 999.80 998.48 997.06 995.60 994.19 992.92 991.86 991.09 990.66 990.62
Thickness
5714 5712 5711 5709 5708 5706 5703 5702 5700 5698 5696 5694 5692 5689 5687 5684 5682 5680 5678 5677 5676 5675 5674 5673 5673 5673 5672 5672 5672 5672 5672 5671 5670 5674 5680 5685 5688 5690 5692 5694 5696 5698 5700
5711 5710 5708 5707 5705 5703 5701 5700 5698 5696 5694 5692 5689 5687 5684 5682 5680 5678 5676 5676 5674 5673 5672 5672 5671 5672 5671 5671 5671 5671 5671 5671 5671 5671 5675 5679 5683 5686 5688 5689 5692 5693 5695
5710 5707 5705 5703 5702 5700 5699 5697 5696 5693 5691 5689 5687 5684 5682 5680 5678 5677 5675 5674 5673 5672 5672 5671 5670 5670 5670 5670 5670 5670 5670 5671 5671 5670 5671 5675 5678 5681 5682 5684 5686 5688 5690
5707 5704 5702 5700 5699 5697 5696 5694 5692 5690 5688 5686 5684 5682 5680 5678 5677 5675 5674 5673 5672 5671 5671 5671 5671 5670 5669 5669 5669 5669 5669 5668 5668 5668 5669 5670 5672 5675 5676 5677 5678 5680 5683
5703 5700 5698 5697 5696 5694 5692 5690 5688 5686 5685 5683 5681 5679 5677 5676 5675 5673 5672 5671 5670 5669 5670 5670 5671 5671 5671 5670 5670 5668 5668 5666 5665 5665 5665 5666 5667 5668 5670 5672 5672 5673 5675
5699 5697 5695 5694 5692 5690 5688 5686 5684 5682 5681 5679 5677 5675 5674 5674 5673 5672 5670 5668 5668 5667 5667 5668 5670 5670 5670 5670 5670 5670 5668 5665 5663 5662 5661 5661 5663 5665 5666 5667 5667 5667 5668
5695 5693 5691 5690 5688 5686 5684 5682 5679 5678 5676 5675 5673 5671 5669 5669 5670 5669 5667 5665 5665 5665 5665 5665 5667 5668 5668 5667 5667 5667 5666 5666 5666 5663 5660 5660 5661 5663 5663 5663 5663 5663 5664
5691 5689 5687 5685 5683 5681 5679 5677 5675 5674 5671 5670 5669 5667 5665 5665 5665 5664 5664 5662 5661 5661 5662 5662 5662 5663 5664 5663 5663 5662 5662 5662 5662 5661 5661 5661 5662 5662 5662 5662 5661 5660 5660
5685 5684 5683 5681 5678 5676 5674 5672 5671 5669 5667 5665 5664 5662 5660 5659 5660 5659 5659 5656 5655 5656 5657 5658 5658 5659 5660 5660 5658 5657 5657 5657 5658 5659 5659 5659 5659 5659 5659 5657 5655 5654 5653
5680 5679 5678 5676 5673 5671 5669 5667 5666 5664 5662 5661 5659 5657 5655 5653 5654 5653 5652 5650 5649 5650 5651 5652 5653 5654 5655 5655 5653 5652 5651 5652 5653 5653 5653 5654 5654 5654 5654 5653 5652 5650 5648
5675 5674 5672 5670 5668 5666 5664 5662 5660 5658 5656 5654 5652 5650 5649 5648 5648 5647 5646 5644 5643 5643 5644 5644 5647 5648 5649 5649 5649 5648 5648 5648 5648 5647 5647 5647 5647 5647 5647 5648 5648 5647 5645
5669 5667 5665 5664 5663 5661 5657 5655 5653 5650 5648 5646 5644 5643 5642 5642 5641 5640 5640 5639 5638 5637 5637 5638 5639 5641 5643 5643 5643 5644 5644 5643 5641 5640 5640 5639 5640 5640 5640 5641 5641 5641 5642
5660 5658 5657 5656 5654 5652 5649 5647 5644 5642 5639 5638 5636 5635 5635 5635 5634 5634 5634 5633 5632 5630 5631 5632 5633 5634 5635 5635 5636 5636 5636 5634 5633 5632 5632 5632 5633 5634 5634 5634 5634 5634 5634
5651 5649 5648 5646 5644 5643 5641 5639 5636 5634 5632 5630 5629 5628 5627 5627 5626 5626 5626 5625 5624 5623 5623 5624 5624 5625 5625 5626 5626 5626 5626 5625 5625 5624 5624 5625 5626 5626 5626 5626 5626 5626 5625
5642 5640 5638 5636 5634 5633 5631 5630 5629 5628 5626 5624 5623 5621 5619 5619 5621 5621 5619 5618 5616 5615 5614 5613 5612 5612 5612 5613 5614 5615 5615 5615 5615 5615 5615 5616 5616 5616 5617 5618 5618 5618 5617
5632 5630 5628 5626 5625 5623 5621 5620 5621 5620 5620 5619 5618 5616 5616 5616 5616 5614 5613 5612 5610 5608 5605 5603 5602 5601 5601 5602 5602 5603 5603 5604 5604 5605 5605 5605 5606 5607 5607 5608 5608 5608 5609
5623 5620 5618 5616 5615 5613 5611 5610 5609 5611 5611 5610 5609 5608 5608 5608 5607 5605 5604 5602 5601 5599 5595 5594 5593 5592 5592 5591 5592 5592 5593 5594 5594 5594 5595 5595 5596 5597 5597 5597 5598 5598 5598
5614 5612 5610 5606 5604 5603 5601 5600 5598 5598 5598 5598 5599 5599 5598 5598 5597 5596 5594 5591 5588 5587 5586 5585 5585 5584 5583 5582 5582 5582 5583 5583 5583 5583 5584 5584 5584 5585 5586 5587 5587 5588 5588
5604 5601 5599 5596 5594 5592 5590 5589 5587 5587 5586 5586 5586 5587 5587 5587 5586 5585 5583 5580 5579 5578 5577 5576 5576 5576 5575 5574 5574 5574 5574 5574 5574 5573 5574 5574 5574 5574 5575 5576 5577 5578 5578
5593 5592 5590 5586 5583 5580 5578 5577 5575 5574 5574 5574 5574 5574 5574 5573 5572 5572 5571 5571 5570 5570 5570 5569 5568 5567 5566 5566 5565 5565 5565 5565 5564 5564 5564 5565 5565 5565 5565 5566 5567 5567 5568
5582 5580 5579 5575 5571 5569 5567 5565 5564 5563 5562 5562 5563 5564 5563 5562 5562 5562 5561 5561 5561 5562 5561 5560 5560 5558 5558 5557 5557 5557 5557 5556 5556 5556 5556 5556 5556 5556 5557 5557 5558 5559 5559
5570 5568 5565 5563 5560 5558 5556 5554 5552 5551 5551 5551 5552 5552 5552 5551 5551 5551 5552 5553 5553 5553 5553 5552 5552 5551 5551 5550 5550 5549 5548 5548 5548 5547 5547 5547 5548 5548 5548 5548 5549 5550 5550
5559 5556 5554 5551 5549 5548 5545 5543 5541 5540 5539 5539 5540 5540 5541 5540 5541 5542 5542 5543 5544 5544 5544 5543 5543 5543 5543 5543 5542 5541 5541 5541 5541 5540 5539 5540 5540 5540 5540 5541 5541 5542 5542
5548 5545 5542 5540 5537 5535 5533 5532 5531 5530 5529 5529 5530 5530 5530 5531 5531 5533 5534 5535 5535 5535 5535 5534 5534 5535 5535 5534 5534 5533 5533 5533 5533 5532 5532 5532 5533 5533 5533 5533 5533 5534 5535
5536 5534 5531 5529 5526 5524 5522 5521 5520 5519 5519 5519 5519 5520 5520 5521 5522 5523 5524 5525 5525 5526 5527 5526 5526 5527 5527 5527 5526 5526 5526 5526 5525 5524 5524 5525 5525 5526 5526 5526 5526 5526 5527
5526 5523 5521 5518 5516 5514 5512 5510 5509 5509 5508 5509 5509 5510 5510 5511 5512 5514 5514 5515 5516 5517 5518 5519 5519 5519 5520 5520 5520 5520 5520 5519 5519 5518 5518 5518 5518 5519 5519 5519 5519 5519 5520